Hourly Data Report for October 11, 2015

All times are specified in Local Standard Time (LST). Add 1 hour to adjust for Daylight Saving Time where and when it is observed.

PENTICTON A
BRITISH COLUMBIA

49°27'45.000" N
119°36'08.000" W
344.40 m
1126146
71889
YYF

Download Data

Hourly Data (October 2015)
Hourly Data Report for October 11, 2015
Temp Definition
°C
Dew Point Temp Definition
°C
Rel Hum Definition
%
Wind Dir Definition
10's deg

Wind Spd Definition
km/h
Visibility Definition
km
Stn Press Definition
kPa
Hmdx Definition


Wind Chill Definition


Weather Definition


TIME
00:00 Legend Double Dagger 16.5 3.7 42 25 28 24.1 96.64     Rain Showers
01:00 Legend Double Dagger 12.7 5.7 62 7 17 24.1 96.82     Mostly Cloudy
02:00 Legend Double Dagger 13.2 4.2 54 33 17 24.1 96.94     LegendNANA
03:00 Legend Double Dagger 14.8 1.1 39 23 11 24.1 97.09     LegendNANA
04:00 Legend Double Dagger 13.9 0.9 41 10 7 24.1 97.22     Mainly Clear
05:00 Legend Double Dagger 14.5 0.1 37 24 22 24.1 97.39     LegendNANA
06:00 Legend Double Dagger 14.0 1.0 41 36 2 24.1 97.53     LegendNANA
07:00 Legend Double Dagger 12.8 0.9 44 4 19 24.1 97.60     Mainly Clear
08:00 Legend Double Dagger 15.0 0.5 37 36 8 24.1 97.75     LegendNANA
09:00 Legend Double Dagger 16.1 1.9 38 3 8 24.1 97.78     LegendNANA
10:00 Legend Double Dagger 16.7 1.3 35 3 7 24.1 97.87     Mainly Clear
11:00 Legend Double Dagger 17.1 0.4 32 9 5 24.1 97.84     LegendNANA
12:00 Legend Double Dagger 18.2 1.8 33 16 7 24.1 97.82     LegendNANA
13:00 Legend Double Dagger 18.6 0.8 30 17 11 24.1 97.79     Mainly Clear
14:00 Legend Double Dagger 19.0 3.7 36 18 17 24.1 97.78     LegendNANA
15:00 Legend Double Dagger 18.0 1.6 33 18 22 24.1 97.76     LegendNANA
16:00 Legend Double Dagger 17.5 2.4 36 17 16 24.1 97.77     Mostly Cloudy
17:00 Legend Double Dagger 17.1 0.8 33 19 15 24.1 97.80     LegendNANA
18:00 Legend Double Dagger 16.0 4.8 47 16 7 24.1 97.79     LegendNANA
19:00 Legend Double Dagger 16.7 0.0 32 27 13 24.1 97.90     Cloudy
20:00 Legend Double Dagger 14.9 1.2 39 31 4 24.1 97.87     LegendNANA
21:00 Legend Double Dagger 12.8 1.8 47 4 4 24.1 97.79     LegendNANA
22:00 Legend Double Dagger 11.4 3.0 56 14 6 24.1 97.76     Cloudy
23:00 Legend Double Dagger 10.3 2.9 60 5 8 24.1 97.76     LegendNANA

Notes on Data Quality.

Legend

  • E = Estimated
  • M = Missing
  • NA = Not Available
  • ‡ = Partner data that is not subject to review by the National Climate Archives
Date modified: